Location: Tel Aviv
(32.0670°N, 34.7670°E)
Time: 07:19:34
(UTC+03:00)

EO-79 - Visible Passes

Search period start: 19 September 2024 00:00
Search period end: 29 September 2024 00:00
Orbit: 553 x 567 km, 98.1° (Epoch: 18 September)

Date Brightness Start Highest point End Pass type
(mag) Time Alt. Az. Time Alt. Az. Time Alt. Az.
19 Sep ? 04:14:20 10° N 04:15:53 23° N 04:15:53 23° N visible
20 Sep ? 04:13:06 10° NNE 04:14:33 22° N 04:14:33 22° N visible
21 Sep ? 04:11:51 10° NNE 04:13:11 20° NNE 04:13:11 20° NNE visible
22 Sep ? 04:10:35 10° NNE 04:11:48 19° NNE 04:11:48 19° NNE visible
23 Sep ? 04:09:17 10° NNE 04:10:24 18° NNE 04:10:24 18° NNE visible
24 Sep ? 04:07:59 10° NNE 04:08:58 17° NNE 04:08:58 17° NNE visible
25 Sep ? 04:06:39 10° NNE 04:07:31 16° NNE 04:07:31 16° NNE visible
26 Sep ? 04:05:18 10° NNE 04:06:03 15° NNE 04:06:03 15° NNE visible
27 Sep ? 04:03:55 10° NNE 04:04:33 14° NNE 04:04:33 14° NNE visible
28 Sep ? 04:02:32 10° NNE 04:03:01 13° NNE 04:03:01 13° NNE visible
